CES583 ZSPD-KLAX

Flight info

Callsign CES583
Flight time N/A
Altitude FL310
Route LAM81D LAMEN A593 SADLI Y590 BEDAR Y591 FUE Y23 KASTE Y81 TASOT Y57 POROT OTR11 LEPKI 41N160E 42N170E 42N180E 42N170W 42N160W 42N150W 41N140W 39N130W DACEM PAINT PIRAT TILLT DIRBY2
Aircraft B77W/H-SDE1E2E3FGHIJ2J3J4J5M1RWXY/LB1D1

Departure

Time N/A
Airport Shanghai Pudong International Airport (ZSPD)

Arrival

Time 2026-05-05 14:30
Airport Los Angeles International Airport (KLAX)
Time Latitude Longitude Altitude Speed Heading
2026-05-05 10:00 42.01714 -159.59032 34964 ft 521 kts 90°
2026-05-05 10:00 42.01906 -159.54172 34968 ft 522 kts 91°
2026-05-05 10:00 42.02282 -159.44448 34974 ft 522 kts 91°
2026-05-05 10:01 42.02652 -159.34718 34976 ft 522 kts 91°
2026-05-05 10:01 42.03016 -159.24974 34981 ft 523 kts 91°
2026-05-05 10:02 42.03372 -159.15228 34987 ft 523 kts 91°
2026-05-05 10:02 42.03720 -159.05467 34990 ft 523 kts 91°
2026-05-05 10:03 42.04060 -158.95708 34994 ft 523 kts 91°
2026-05-05 10:03 42.04392 -158.85949 35001 ft 523 kts 91°
2026-05-05 10:04 42.04715 -158.76187 35003 ft 523 kts 91°
2026-05-05 10:04 42.05030 -158.66447 35012 ft 523 kts 91°
2026-05-05 10:05 42.05337 -158.56663 35013 ft 523 kts 91°
2026-05-05 10:05 42.05636 -158.46903 35015 ft 523 kts 91°
2026-05-05 10:06 42.05926 -158.37142 35021 ft 523 kts 91°
2026-05-05 10:06 42.06208 -158.27377 35021 ft 523 kts 91°
2026-05-05 10:07 42.06481 -158.17613 35024 ft 523 kts 91°
2026-05-05 10:07 42.06746 -158.07850 35042 ft 523 kts 91°
2026-05-05 10:08 42.07004 -157.98075 35039 ft 524 kts 91°
2026-05-05 10:08 42.07253 -157.88301 35051 ft 524 kts 91°
2026-05-05 10:09 42.07494 -157.78514 35049 ft 524 kts 91°
2026-05-05 10:09 42.07726 -157.68728 35059 ft 525 kts 91°
2026-05-05 10:10 42.07951 -157.58929 35055 ft 525 kts 91°
2026-05-05 10:10 42.08167 -157.49129 35056 ft 525 kts 91°
2026-05-05 10:11 42.08375 -157.39317 35065 ft 526 kts 91°
2026-05-05 10:11 42.08575 -157.29501 35068 ft 526 kts 91°
2026-05-05 10:12 42.08767 -157.19685 35077 ft 526 kts 91°
2026-05-05 10:12 42.08950 -157.09858 35077 ft 526 kts 91°
2026-05-05 10:13 42.09125 -157.00033 35084 ft 526 kts 91°
2026-05-05 10:13 42.09291 -156.90199 35081 ft 526 kts 91°
2026-05-05 10:14 42.09450 -156.80364 35087 ft 526 kts 91°
2026-05-05 10:14 42.09599 -156.70534 35093 ft 527 kts 91°
2026-05-05 10:15 42.09741 -156.60693 35093 ft 527 kts 91°
2026-05-05 10:15 42.09874 -156.50857 35097 ft 527 kts 91°
2026-05-05 10:16 42.09999 -156.41023 35107 ft 526 kts 91°
2026-05-05 10:16 42.10115 -156.31184 35112 ft 526 kts 91°
2026-05-05 10:17 42.10223 -156.21355 35113 ft 526 kts 91°
2026-05-05 10:17 42.10322 -156.11522 35117 ft 526 kts 91°
2026-05-05 10:18 42.10413 -156.01688 35122 ft 526 kts 91°
2026-05-05 10:18 42.10496 -155.91865 35114 ft 526 kts 91°
2026-05-05 10:19 42.10570 -155.82037 35130 ft 526 kts 91°
2026-05-05 10:19 42.10636 -155.72208 35127 ft 526 kts 91°
2026-05-05 10:20 42.10693 -155.62391 35132 ft 526 kts 91°
2026-05-05 10:20 42.10742 -155.52568 35135 ft 525 kts 91°
2026-05-05 10:21 42.10783 -155.42756 35140 ft 525 kts 91°
2026-05-05 10:21 42.10815 -155.32947 35138 ft 525 kts 91°
2026-05-05 10:22 42.10839 -155.23138 35149 ft 525 kts 91°
2026-05-05 10:22 42.10854 -155.13333 35148 ft 525 kts 91°
2026-05-05 10:23 42.10861 -155.03530 35152 ft 525 kts 92°
2026-05-05 10:23 42.10860 -154.93723 35158 ft 525 kts 92°
2026-05-05 10:24 42.10851 -154.83920 35156 ft 525 kts 92°
2026-05-05 10:24 42.10833 -154.74113 35158 ft 525 kts 92°
2026-05-05 10:25 42.10807 -154.64304 35164 ft 525 kts 92°
2026-05-05 10:25 42.10772 -154.54504 35168 ft 524 kts 92°
2026-05-05 10:26 42.10729 -154.44707 35167 ft 524 kts 92°
2026-05-05 10:26 42.10678 -154.34912 35172 ft 524 kts 92°
2026-05-05 10:27 42.10619 -154.25126 35173 ft 524 kts 92°
2026-05-05 10:27 42.10551 -154.15342 35176 ft 523 kts 92°
2026-05-05 10:28 42.10475 -154.05569 35178 ft 523 kts 92°
2026-05-05 10:28 42.10391 -153.95800 35183 ft 523 kts 92°
2026-05-05 10:29 42.10298 -153.86042 35189 ft 522 kts 92°
2026-05-05 10:29 42.10198 -153.76283 35187 ft 522 kts 92°
2026-05-05 10:30 42.10089 -153.66536 35189 ft 522 kts 92°
2026-05-05 10:30 42.09972 -153.56797 35192 ft 521 kts 93°
2026-05-05 10:31 42.09847 -153.47053 35196 ft 521 kts 93°
2026-05-05 10:31 42.09713 -153.37322 35199 ft 521 kts 93°
2026-05-05 10:32 42.09572 -153.27584 35202 ft 521 kts 93°
2026-05-05 10:32 42.09422 -153.17850 35203 ft 521 kts 93°
2026-05-05 10:33 42.09264 -153.08121 35209 ft 521 kts 93°
2026-05-05 10:33 42.09097 -152.98392 35211 ft 521 kts 93°
2026-05-05 10:34 42.08923 -152.88662 35212 ft 521 kts 94°
2026-05-05 10:34 42.08740 -152.78941 35215 ft 520 kts 94°
2026-05-05 10:35 42.08550 -152.69232 35216 ft 520 kts 94°
2026-05-05 10:35 42.08351 -152.59519 35217 ft 520 kts 94°
2026-05-05 10:36 42.08145 -152.49821 35220 ft 519 kts 94°
2026-05-05 10:36 42.07930 -152.40134 35223 ft 519 kts 94°
2026-05-05 10:37 42.07707 -152.30452 35225 ft 518 kts 94°
2026-05-05 10:37 42.07477 -152.20781 35227 ft 518 kts 94°
2026-05-05 10:38 42.07238 -152.11109 35229 ft 518 kts 94°
2026-05-05 10:38 42.06992 -152.01458 35228 ft 517 kts 94°
2026-05-05 10:39 42.06737 -151.91807 35231 ft 517 kts 94°
2026-05-05 10:39 42.06475 -151.82168 35231 ft 516 kts 95°
2026-05-05 10:40 42.06206 -151.72544 35237 ft 516 kts 95°
2026-05-05 10:40 42.05928 -151.62928 35238 ft 515 kts 95°
2026-05-05 10:41 42.05642 -151.53317 35244 ft 515 kts 95°
2026-05-05 10:41 42.05349 -151.43724 35245 ft 514 kts 95°
2026-05-05 10:42 42.04895 -151.29343 35234 ft 514 kts 95°
2026-05-05 10:43 42.04583 -151.19790 35252 ft 513 kts 95°
2026-05-05 10:43 42.04262 -151.10206 35252 ft 513 kts 95°
2026-05-05 10:44 42.03935 -151.00650 35249 ft 512 kts 95°
2026-05-05 10:44 42.03599 -150.91103 35254 ft 512 kts 95°
2026-05-05 10:45 42.03257 -150.81572 35255 ft 511 kts 96°
2026-05-05 10:45 42.02906 -150.72050 35254 ft 511 kts 96°
2026-05-05 10:46 42.02548 -150.62535 35257 ft 510 kts 96°
2026-05-05 10:46 42.02183 -150.53033 35260 ft 510 kts 96°
2026-05-05 10:47 42.01810 -150.43544 35261 ft 509 kts 96°
2026-05-05 10:47 42.01430 -150.34056 35263 ft 509 kts 96°
2026-05-05 10:48 42.01042 -150.24587 35263 ft 508 kts 96°
2026-05-05 10:48 42.00647 -150.15121 35268 ft 508 kts 96°
2026-05-05 10:49 42.00246 -150.05673 35267 ft 507 kts 96°
2026-05-05 10:49 41.99821 -149.96226 35268 ft 507 kts 97°
2026-05-05 10:50 41.99294 -149.86808 35268 ft 506 kts 98°
2026-05-05 10:50 41.98735 -149.77412 35271 ft 505 kts 98°
2026-05-05 10:51 41.98179 -149.68020 35273 ft 505 kts 98°
2026-05-05 10:51 41.97627 -149.58650 35276 ft 504 kts 98°
2026-05-05 10:52 41.97072 -149.49300 35273 ft 503 kts 98°
2026-05-05 10:52 41.96510 -149.39966 35275 ft 502 kts 98°
2026-05-05 10:53 41.95941 -149.30646 35277 ft 501 kts 98°
2026-05-05 10:53 41.95364 -149.21350 35281 ft 500 kts 98°
2026-05-05 10:54 41.94781 -149.12056 35282 ft 500 kts 98°
2026-05-05 10:54 41.94190 -149.02769 35277 ft 500 kts 98°
2026-05-05 10:55 41.93593 -148.93499 35280 ft 499 kts 98°
2026-05-05 10:55 41.92988 -148.84228 35284 ft 499 kts 99°
2026-05-05 10:56 41.92377 -148.74980 35282 ft 498 kts 99°
2026-05-05 10:56 41.91759 -148.65731 35287 ft 498 kts 99°
2026-05-05 10:57 41.91134 -148.56495 35286 ft 498 kts 99°
2026-05-05 10:57 41.90501 -148.47262 35287 ft 497 kts 99°
2026-05-05 10:58 41.89862 -148.38035 35290 ft 497 kts 99°
2026-05-05 10:58 41.89215 -148.28817 35288 ft 497 kts 99°
2026-05-05 10:59 41.88561 -148.19599 35290 ft 497 kts 99°
2026-05-05 10:59 41.87900 -148.10381 35291 ft 498 kts 99°
2026-05-05 11:00 41.87230 -148.01154 35288 ft 498 kts 99°
2026-05-05 11:00 41.86553 -147.91929 35290 ft 498 kts 99°
2026-05-05 11:01 41.85869 -147.82700 35292 ft 498 kts 100°
2026-05-05 11:01 41.85176 -147.73466 35292 ft 499 kts 100°
2026-05-05 11:02 41.84476 -147.64239 35291 ft 499 kts 100°
2026-05-05 11:02 41.83769 -147.55007 35290 ft 499 kts 100°
2026-05-05 11:03 41.83054 -147.45777 35311 ft 500 kts 100°
2026-05-05 11:03 41.82691 -147.41141 35494 ft 501 kts 100°
2026-05-05 11:03 41.82327 -147.36503 35803 ft 501 kts 100°
2026-05-05 11:03 41.81963 -147.31885 36123 ft 499 kts 100°
2026-05-05 11:04 41.81597 -147.27267 36424 ft 499 kts 100°
2026-05-05 11:04 41.81229 -147.22651 36686 ft 499 kts 100°
2026-05-05 11:04 41.80859 -147.18030 36926 ft 500 kts 100°
2026-05-05 11:04 41.80486 -147.13406 37159 ft 500 kts 100°
2026-05-05 11:05 41.80110 -147.08768 37251 ft 503 kts 100°
2026-05-05 11:05 41.79352 -146.99477 37298 ft 502 kts 101°
2026-05-05 11:06 41.78592 -146.90231 37307 ft 498 kts 101°
2026-05-05 11:06 41.77828 -146.81042 37299 ft 496 kts 101°
2026-05-05 11:07 41.77058 -146.71880 37303 ft 496 kts 101°
2026-05-05 11:07 41.76280 -146.62724 37303 ft 496 kts 101°
2026-05-05 11:08 41.75940 -146.58748 37310 ft 497 kts 101°
2026-05-05 11:08 41.75149 -146.49565 37304 ft 498 kts 101°
2026-05-05 11:09 41.74349 -146.40356 37309 ft 500 kts 101°
2026-05-05 11:09 41.73539 -146.31112 37306 ft 501 kts 101°
2026-05-05 11:10 41.72720 -146.21853 37306 ft 503 kts 101°
2026-05-05 11:10 41.71892 -146.12573 37305 ft 503 kts 101°
2026-05-05 11:11 41.71055 -146.03283 37304 ft 504 kts 101°
2026-05-05 11:11 41.70211 -145.93997 37306 ft 504 kts 102°
2026-05-05 11:12 41.69360 -145.84723 37303 ft 503 kts 102°
2026-05-05 11:12 41.68501 -145.75454 37301 ft 503 kts 102°
2026-05-05 11:13 41.67636 -145.66194 37303 ft 502 kts 102°
2026-05-05 11:13 41.66764 -145.56946 37304 ft 502 kts 102°
2026-05-05 11:14 41.65885 -145.47707 37307 ft 502 kts 102°
2026-05-05 11:14 41.64998 -145.38461 37303 ft 502 kts 102°
2026-05-05 11:15 41.64104 -145.29225 37302 ft 502 kts 102°
2026-05-05 11:15 41.63202 -145.19978 37304 ft 503 kts 102°
2026-05-05 11:16 41.62293 -145.10737 37298 ft 503 kts 102°
2026-05-05 11:16 41.61374 -145.01485 37302 ft 503 kts 102°
2026-05-05 11:17 41.60449 -144.92236 37303 ft 503 kts 102°
2026-05-05 11:17 41.59515 -144.82983 37301 ft 504 kts 102°
2026-05-05 11:18 41.58574 -144.73729 37294 ft 504 kts 102°
2026-05-05 11:18 41.57623 -144.64461 37309 ft 505 kts 102°
2026-05-05 11:19 41.56666 -144.55200 37297 ft 505 kts 102°
2026-05-05 11:19 41.55700 -144.45936 37300 ft 505 kts 102°
2026-05-05 11:20 41.54727 -144.36677 37299 ft 505 kts 102°
2026-05-05 11:20 41.53747 -144.27419 37297 ft 504 kts 102°
2026-05-05 11:21 41.52760 -144.18172 37293 ft 504 kts 102°
2026-05-05 11:21 41.51767 -144.08936 37294 ft 504 kts 102°
2026-05-05 11:22 41.50767 -143.99710 37292 ft 503 kts 102°
2026-05-05 11:22 41.49759 -143.90486 37294 ft 503 kts 102°
2026-05-05 11:23 41.48745 -143.81277 37286 ft 503 kts 102°
2026-05-05 11:23 41.47724 -143.72070 37287 ft 503 kts 102°
2026-05-05 11:24 41.46697 -143.62876 37282 ft 502 kts 102°
2026-05-05 11:24 41.45662 -143.53685 37285 ft 502 kts 102°
2026-05-05 11:25 41.44621 -143.44497 37282 ft 502 kts 103°
2026-05-05 11:25 41.43572 -143.35314 37291 ft 502 kts 103°
2026-05-05 11:26 41.42515 -143.26130 37289 ft 503 kts 103°
2026-05-05 11:26 41.41451 -143.16949 37288 ft 503 kts 103°
2026-05-05 11:27 41.40379 -143.07766 37288 ft 503 kts 103°
2026-05-05 11:27 41.39300 -142.98591 37290 ft 503 kts 103°
2026-05-05 11:28 41.38215 -142.89420 37286 ft 502 kts 103°
2026-05-05 11:28 41.37121 -142.80249 37285 ft 502 kts 103°
2026-05-05 11:29 41.36022 -142.71092 37287 ft 502 kts 103°
2026-05-05 11:29 41.34914 -142.61930 37293 ft 502 kts 103°
2026-05-05 11:30 41.33801 -142.52783 37280 ft 502 kts 103°
2026-05-05 11:30 41.32679 -142.43630 37284 ft 502 kts 103°
2026-05-05 11:31 41.31551 -142.34490 37288 ft 502 kts 103°
2026-05-05 11:31 41.30417 -142.25357 37287 ft 502 kts 103°
2026-05-05 11:32 41.29274 -142.16219 37288 ft 502 kts 103°
2026-05-05 11:32 41.28125 -142.07091 37287 ft 502 kts 103°
2026-05-05 11:33 41.26969 -141.97969 37287 ft 502 kts 103°
2026-05-05 11:33 41.25805 -141.88847 37288 ft 501 kts 103°
2026-05-05 11:34 41.24634 -141.79729 37283 ft 501 kts 103°
2026-05-05 11:34 41.23457 -141.70617 37285 ft 501 kts 103°
2026-05-05 11:35 41.22273 -141.61513 37287 ft 501 kts 103°
2026-05-05 11:35 41.21082 -141.52420 37289 ft 501 kts 103°
2026-05-05 11:36 41.19887 -141.43342 37290 ft 500 kts 103°
2026-05-05 11:36 41.18684 -141.34272 37284 ft 499 kts 103°
2026-05-05 11:37 41.17477 -141.25220 37284 ft 499 kts 103°
2026-05-05 11:37 41.16263 -141.16179 37285 ft 498 kts 103°
2026-05-05 11:38 41.15043 -141.07148 37288 ft 498 kts 103°
2026-05-05 11:38 41.13819 -140.98140 37300 ft 497 kts 103°
2026-05-05 11:39 41.12588 -140.89132 37299 ft 497 kts 103°
2026-05-05 11:39 41.11351 -140.80139 37281 ft 497 kts 103°
2026-05-05 11:40 41.10107 -140.71150 37292 ft 496 kts 103°
2026-05-05 11:40 41.08858 -140.62183 37290 ft 496 kts 103°
2026-05-05 11:41 41.07604 -140.53224 37291 ft 495 kts 103°
2026-05-05 11:41 41.06344 -140.44276 37285 ft 495 kts 103°
2026-05-05 11:42 41.05078 -140.35346 37284 ft 494 kts 103°
2026-05-05 11:42 41.03806 -140.26419 37295 ft 494 kts 103°
2026-05-05 11:43 41.02529 -140.17505 37291 ft 494 kts 103°
2026-05-05 11:43 41.01244 -140.08590 37289 ft 494 kts 103°
2026-05-05 11:44 40.99954 -139.99684 37294 ft 494 kts 103°
2026-05-05 11:44 40.98615 -139.90785 37291 ft 494 kts 104°
2026-05-05 11:45 40.97243 -139.81905 37295 ft 494 kts 104°
2026-05-05 11:45 40.95866 -139.73023 37291 ft 494 kts 104°
2026-05-05 11:46 40.94489 -139.64144 37299 ft 493 kts 104°
2026-05-05 11:46 40.93110 -139.55277 37297 ft 493 kts 104°
2026-05-05 11:47 40.91726 -139.46426 37297 ft 492 kts 104°
2026-05-05 11:47 40.90335 -139.37585 37298 ft 492 kts 104°
2026-05-05 11:48 40.88244 -139.24372 37297 ft 490 kts 104°
2026-05-05 11:48 40.86844 -139.15588 37295 ft 489 kts 104°
2026-05-05 11:49 40.85441 -139.06830 37302 ft 488 kts 104°
2026-05-05 11:49 40.84034 -138.98092 37298 ft 487 kts 104°
2026-05-05 11:50 40.82625 -138.89385 37296 ft 485 kts 104°
2026-05-05 11:50 40.81213 -138.80700 37297 ft 484 kts 104°
2026-05-05 11:51 40.79797 -138.72042 37296 ft 483 kts 104°
2026-05-05 11:51 40.78380 -138.63416 37291 ft 482 kts 105°
2026-05-05 11:52 40.76958 -138.54803 37290 ft 481 kts 105°
2026-05-05 11:52 40.75534 -138.46220 37282 ft 480 kts 105°
2026-05-05 11:53 40.74105 -138.37649 37281 ft 479 kts 105°
2026-05-05 11:53 40.72674 -138.29105 37294 ft 478 kts 105°
2026-05-05 11:54 40.71239 -138.20580 37289 ft 477 kts 105°
2026-05-05 11:54 40.69799 -138.12070 37290 ft 477 kts 105°
2026-05-05 11:55 40.68353 -138.03563 37285 ft 476 kts 105°
2026-05-05 11:55 40.66903 -137.95071 37287 ft 476 kts 105°
2026-05-05 11:56 40.65445 -137.86574 37286 ft 476 kts 105°
2026-05-05 11:56 40.63982 -137.78085 37284 ft 477 kts 105°
2026-05-05 11:57 40.62512 -137.69598 37285 ft 476 kts 105°
2026-05-05 11:57 40.61035 -137.61113 37287 ft 476 kts 105°
2026-05-05 11:58 40.59554 -137.52636 37286 ft 476 kts 105°
2026-05-05 11:58 40.58067 -137.44170 37284 ft 476 kts 105°
2026-05-05 11:59 40.56574 -137.35709 37281 ft 476 kts 105°
2026-05-05 11:59 40.55077 -137.27259 37280 ft 475 kts 105°
2026-05-05 12:00 40.53575 -137.18823 37286 ft 475 kts 105°
2026-05-05 12:00 40.52068 -137.10397 37277 ft 474 kts 105°
2026-05-05 12:01 40.50556 -137.01981 37278 ft 474 kts 105°
2026-05-05 12:01 40.49039 -136.93576 37281 ft 473 kts 105°
2026-05-05 12:02 40.47519 -136.85190 37279 ft 473 kts 105°
2026-05-05 12:02 40.45994 -136.76817 37278 ft 472 kts 105°
2026-05-05 12:03 40.44467 -136.68465 37276 ft 471 kts 105°
2026-05-05 12:03 40.42937 -136.60131 37280 ft 470 kts 105°
2026-05-05 12:04 40.41404 -136.51821 37275 ft 469 kts 105°
2026-05-05 12:04 40.39869 -136.43538 37270 ft 468 kts 105°
2026-05-05 12:05 40.38330 -136.35270 37267 ft 467 kts 105°
2026-05-05 12:05 40.36789 -136.27019 37266 ft 466 kts 105°
2026-05-05 12:06 40.35245 -136.18790 37261 ft 466 kts 105°
2026-05-05 12:06 40.33697 -136.10573 37266 ft 465 kts 105°
2026-05-05 12:07 40.32144 -136.02370 37265 ft 464 kts 106°
2026-05-05 12:07 40.30588 -135.94183 37261 ft 464 kts 105°
2026-05-05 12:08 40.29026 -135.85997 37258 ft 464 kts 106°
2026-05-05 12:08 40.27461 -135.77830 37256 ft 463 kts 106°
2026-05-05 12:09 40.25891 -135.69675 37254 ft 463 kts 106°
2026-05-05 12:09 40.24317 -135.61525 37251 ft 462 kts 106°
2026-05-05 12:10 40.22739 -135.53394 37251 ft 462 kts 106°
2026-05-05 12:10 40.21157 -135.45270 37248 ft 462 kts 106°
2026-05-05 12:11 40.19569 -135.37152 37243 ft 461 kts 106°
2026-05-05 12:11 40.17977 -135.29047 37239 ft 461 kts 106°
2026-05-05 12:12 40.16379 -135.20939 37238 ft 461 kts 106°
2026-05-05 12:12 40.14776 -135.12844 37235 ft 461 kts 106°
2026-05-05 12:13 40.13169 -135.04756 37235 ft 461 kts 106°
2026-05-05 12:13 40.11555 -134.96667 37235 ft 461 kts 106°
2026-05-05 12:14 40.09937 -134.88591 37230 ft 461 kts 106°
2026-05-05 12:14 40.08314 -134.80521 37229 ft 460 kts 106°
2026-05-05 12:15 40.06687 -134.72460 37226 ft 460 kts 106°
2026-05-05 12:15 40.05054 -134.64405 37223 ft 460 kts 106°
2026-05-05 12:16 40.03418 -134.56365 37223 ft 459 kts 106°
2026-05-05 12:16 40.01777 -134.48331 37223 ft 459 kts 106°
2026-05-05 12:17 40.00135 -134.40326 37222 ft 458 kts 106°
2026-05-05 12:17 39.98486 -134.32316 37217 ft 458 kts 106°
2026-05-05 12:18 39.96836 -134.24328 37215 ft 457 kts 106°
2026-05-05 12:18 39.95181 -134.16350 37213 ft 457 kts 106°
2026-05-05 12:19 39.93523 -134.08385 37212 ft 456 kts 106°
2026-05-05 12:19 39.91861 -134.00433 37210 ft 456 kts 105°
2026-05-05 12:20 39.90196 -133.92498 37213 ft 455 kts 105°
2026-05-05 12:20 39.88526 -133.84568 37210 ft 455 kts 105°
2026-05-05 12:21 39.86853 -133.76648 37207 ft 454 kts 105°
2026-05-05 12:21 39.85175 -133.68740 37200 ft 454 kts 105°
2026-05-05 12:22 39.83494 -133.60843 37204 ft 454 kts 105°
2026-05-05 12:22 39.81809 -133.52957 37196 ft 453 kts 105°
2026-05-05 12:23 39.80121 -133.45085 37202 ft 453 kts 105°
2026-05-05 12:23 39.78429 -133.37226 37201 ft 452 kts 105°
2026-05-05 12:24 39.76733 -133.29373 37191 ft 452 kts 105°
2026-05-05 12:24 39.75032 -133.21529 37192 ft 452 kts 105°
2026-05-05 12:25 39.73328 -133.13700 37192 ft 451 kts 105°
2026-05-05 12:25 39.71621 -133.05883 37191 ft 451 kts 105°
2026-05-05 12:26 39.69909 -132.98070 37189 ft 450 kts 105°
2026-05-05 12:26 39.68195 -132.90274 37187 ft 450 kts 105°
2026-05-05 12:27 39.66476 -132.82484 37189 ft 449 kts 105°
2026-05-05 12:27 39.64753 -132.74708 37184 ft 449 kts 105°
2026-05-05 12:28 39.63027 -132.66943 37183 ft 449 kts 105°
2026-05-05 12:28 39.61297 -132.59183 37181 ft 449 kts 105°
2026-05-05 12:29 39.59563 -132.51436 37178 ft 448 kts 105°
2026-05-05 12:29 39.57824 -132.43693 37180 ft 448 kts 105°
2026-05-05 12:30 39.56082 -132.35963 37177 ft 448 kts 105°
2026-05-05 12:30 39.54335 -132.28237 37180 ft 448 kts 105°
2026-05-05 12:31 39.52583 -132.20516 37177 ft 447 kts 105°
2026-05-05 12:31 39.50827 -132.12804 37173 ft 447 kts 105°
2026-05-05 12:32 39.49066 -132.05097 37173 ft 447 kts 105°
2026-05-05 12:32 39.47302 -131.97400 37174 ft 447 kts 105°
2026-05-05 12:33 39.45535 -131.89718 37169 ft 446 kts 105°
2026-05-05 12:33 39.43763 -131.82042 37168 ft 446 kts 105°
2026-05-05 12:34 39.41987 -131.74374 37158 ft 446 kts 105°
2026-05-05 12:34 39.40208 -131.66715 37157 ft 445 kts 105°
2026-05-05 12:35 39.38425 -131.59067 37171 ft 445 kts 105°
2026-05-05 12:35 39.36638 -131.51426 37160 ft 445 kts 105°
2026-05-05 12:36 39.34846 -131.43790 37161 ft 445 kts 105°
2026-05-05 12:36 39.33051 -131.36166 37160 ft 445 kts 105°
2026-05-05 12:37 39.31251 -131.28543 37160 ft 444 kts 105°
2026-05-05 12:37 39.29447 -131.20932 37161 ft 444 kts 105°
2026-05-05 12:38 39.27638 -131.13325 37157 ft 444 kts 105°
2026-05-05 12:38 39.25827 -131.05730 37159 ft 444 kts 105°
2026-05-05 12:39 39.24010 -130.98137 37157 ft 444 kts 105°
2026-05-05 12:39 39.22189 -130.90555 37152 ft 444 kts 105°
2026-05-05 12:40 39.20364 -130.82976 37150 ft 443 kts 105°
2026-05-05 12:40 39.18534 -130.75402 37151 ft 443 kts 105°
2026-05-05 12:41 39.16701 -130.67837 37147 ft 443 kts 105°
2026-05-05 12:41 39.14863 -130.60278 37145 ft 443 kts 105°
2026-05-05 12:42 39.13020 -130.52723 37146 ft 443 kts 105°
2026-05-05 12:42 39.11172 -130.45170 37146 ft 443 kts 105°
2026-05-05 12:43 39.09321 -130.37631 37147 ft 443 kts 105°
2026-05-05 12:43 39.07465 -130.30095 37144 ft 442 kts 105°
2026-05-05 12:44 39.05607 -130.22569 37140 ft 442 kts 105°
2026-05-05 12:44 39.03744 -130.15051 37141 ft 442 kts 105°
2026-05-05 12:45 39.01880 -130.07543 37142 ft 442 kts 105°
2026-05-05 12:45 39.00033 -130.00030 37141 ft 441 kts 103°
2026-05-05 12:46 38.98699 -129.92386 37142 ft 439 kts 99°
2026-05-05 12:46 38.97459 -129.84721 37139 ft 439 kts 99°
2026-05-05 12:47 38.96206 -129.77061 37135 ft 439 kts 99°
2026-05-05 12:47 38.94937 -129.69407 37134 ft 439 kts 99°
2026-05-05 12:48 38.93658 -129.61759 37133 ft 439 kts 99°
2026-05-05 12:48 38.92376 -129.54123 37131 ft 439 kts 99°
2026-05-05 12:49 38.91088 -129.46483 37127 ft 438 kts 99°
2026-05-05 12:49 38.89797 -129.38857 37117 ft 438 kts 99°
2026-05-05 12:50 38.88502 -129.31241 37116 ft 438 kts 99°
2026-05-05 12:50 38.87203 -129.23631 37119 ft 437 kts 99°
2026-05-05 12:51 38.85899 -129.16024 37123 ft 437 kts 99°
2026-05-05 12:51 38.84592 -129.08428 37121 ft 437 kts 99°
2026-05-05 12:52 38.83279 -129.00833 37119 ft 437 kts 99°
2026-05-05 12:52 38.81962 -128.93246 37119 ft 437 kts 99°
2026-05-05 12:53 38.80641 -128.85664 37116 ft 437 kts 99°
2026-05-05 12:53 38.79315 -128.78088 37117 ft 437 kts 99°
2026-05-05 12:54 38.77317 -128.66726 37114 ft 436 kts 99°
2026-05-05 12:55 38.75980 -128.59159 37116 ft 436 kts 99°
2026-05-05 12:55 38.74638 -128.51598 37113 ft 436 kts 99°
2026-05-05 12:56 38.73295 -128.44061 37108 ft 436 kts 99°
2026-05-05 12:56 38.71943 -128.36504 37106 ft 436 kts 99°
2026-05-05 12:57 38.70585 -128.28944 37108 ft 436 kts 99°
2026-05-05 12:57 38.69227 -128.21409 37103 ft 436 kts 99°
2026-05-05 12:58 38.67862 -128.13867 37107 ft 436 kts 99°
2026-05-05 12:58 38.66494 -128.06339 37102 ft 435 kts 99°
2026-05-05 12:59 38.65120 -127.98812 37100 ft 435 kts 99°
2026-05-05 12:59 38.63742 -127.91284 37102 ft 435 kts 99°
2026-05-05 13:00 38.61667 -127.80007 37099 ft 435 kts 99°
2026-05-05 13:01 38.58882 -127.64981 37097 ft 435 kts 99°
2026-05-05 13:01 38.57483 -127.57471 37096 ft 435 kts 99°
2026-05-05 13:02 38.56078 -127.49961 37092 ft 435 kts 99°
2026-05-05 13:02 38.54671 -127.42463 37091 ft 435 kts 99°
2026-05-05 13:03 38.53258 -127.34967 37088 ft 435 kts 99°
2026-05-05 13:03 38.51838 -127.27462 37093 ft 435 kts 99°
2026-05-05 13:04 38.50416 -127.19971 37093 ft 435 kts 99°
2026-05-05 13:04 38.48989 -127.12479 37086 ft 435 kts 99°
2026-05-05 13:05 38.47557 -127.04986 37086 ft 435 kts 99°
2026-05-05 13:05 38.45916 -126.97555 37079 ft 440 kts 105°
2026-05-05 13:06 38.43697 -126.90294 37077 ft 440 kts 106°
2026-05-05 13:06 38.41464 -126.83043 37075 ft 440 kts 106°
2026-05-05 13:07 38.39242 -126.75790 37077 ft 440 kts 106°
2026-05-05 13:07 38.37023 -126.68533 37073 ft 440 kts 106°
2026-05-05 13:08 38.34804 -126.61282 37072 ft 440 kts 106°
2026-05-05 13:08 38.32578 -126.54029 37068 ft 440 kts 106°
2026-05-05 13:09 38.30347 -126.46781 37076 ft 440 kts 106°
2026-05-05 13:09 38.28111 -126.39535 37057 ft 441 kts 106°
2026-05-05 13:10 38.25870 -126.32294 37061 ft 441 kts 106°
2026-05-05 13:10 38.23622 -126.25048 37068 ft 441 kts 106°
2026-05-05 13:11 38.21369 -126.17803 37068 ft 442 kts 106°
2026-05-05 13:11 38.19108 -126.10554 37065 ft 442 kts 106°
2026-05-05 13:12 38.16841 -126.03303 37064 ft 442 kts 106°
2026-05-05 13:12 38.14569 -125.96052 37061 ft 443 kts 106°
2026-05-05 13:13 38.12292 -125.88808 37058 ft 443 kts 106°
2026-05-05 13:13 38.10008 -125.81557 37055 ft 443 kts 106°
2026-05-05 13:14 38.07719 -125.74310 37051 ft 443 kts 106°
2026-05-05 13:14 38.05423 -125.67060 37050 ft 444 kts 106°
2026-05-05 13:15 38.03121 -125.59807 37052 ft 444 kts 106°
2026-05-05 13:15 38.00814 -125.52554 37054 ft 445 kts 106°
2026-05-05 13:16 37.98674 -125.45240 37054 ft 442 kts 103°
2026-05-05 13:16 37.96708 -125.37865 37055 ft 443 kts 103°
2026-05-05 13:17 37.94746 -125.30491 37054 ft 443 kts 103°
2026-05-05 13:17 37.92763 -125.23111 37051 ft 444 kts 103°
2026-05-05 13:18 37.90767 -125.15731 37051 ft 444 kts 103°
2026-05-05 13:18 37.88764 -125.08356 37059 ft 444 kts 103°
2026-05-05 13:19 37.86757 -125.00984 37050 ft 444 kts 103°
2026-05-05 13:19 37.84743 -124.93610 37051 ft 444 kts 103°
2026-05-05 13:20 37.82725 -124.86239 37048 ft 444 kts 103°
2026-05-05 13:20 37.80702 -124.78869 37052 ft 445 kts 103°
2026-05-05 13:21 37.78672 -124.71498 37049 ft 445 kts 103°
2026-05-05 13:21 37.76638 -124.64132 37050 ft 445 kts 103°
2026-05-05 13:22 37.74601 -124.56774 37048 ft 445 kts 103°
2026-05-05 13:22 37.72558 -124.49416 37049 ft 445 kts 103°
2026-05-05 13:23 37.70511 -124.42062 37046 ft 445 kts 103°
2026-05-05 13:23 37.68457 -124.34707 37049 ft 445 kts 103°
2026-05-05 13:24 37.66397 -124.27351 37039 ft 445 kts 103°
2026-05-05 13:24 37.64334 -124.20002 37041 ft 445 kts 104°
2026-05-05 13:25 37.62264 -124.12650 37042 ft 446 kts 104°
2026-05-05 13:25 37.60187 -124.05292 37045 ft 446 kts 104°
2026-05-05 13:26 37.58105 -123.97937 37042 ft 447 kts 104°
2026-05-05 13:26 37.56014 -123.90571 37040 ft 447 kts 104°
2026-05-05 13:27 37.53918 -123.83207 37039 ft 448 kts 104°
2026-05-05 13:27 37.51812 -123.75830 37040 ft 448 kts 104°
2026-05-05 13:28 37.49700 -123.68450 37043 ft 449 kts 104°
2026-05-05 13:28 37.47581 -123.61065 37039 ft 450 kts 104°
2026-05-05 13:29 37.45453 -123.53672 37039 ft 450 kts 104°
2026-05-05 13:29 37.43319 -123.46275 37040 ft 451 kts 104°
2026-05-05 13:30 37.41178 -123.38878 37033 ft 451 kts 104°
2026-05-05 13:30 37.39032 -123.31482 37037 ft 451 kts 104°
2026-05-05 13:31 37.36880 -123.24084 37039 ft 452 kts 104°
2026-05-05 13:31 37.34722 -123.16684 37035 ft 452 kts 104°
2026-05-05 13:32 37.32557 -123.09282 37040 ft 452 kts 104°
2026-05-05 13:32 37.30386 -123.01876 37026 ft 453 kts 104°
2026-05-05 13:33 37.28209 -122.94469 37029 ft 453 kts 105°
2026-05-05 13:33 37.25433 -122.87326 37039 ft 464 kts 118°
2026-05-05 13:34 37.21164 -122.81151 37035 ft 477 kts 133°
2026-05-05 13:34 37.16083 -122.75777 37042 ft 480 kts 134°
2026-05-05 13:35 37.10935 -122.70463 37043 ft 481 kts 134°
2026-05-05 13:35 37.05805 -122.65103 37042 ft 481 kts 134°
2026-05-05 13:36 37.00694 -122.59713 37042 ft 482 kts 134°
2026-05-05 13:36 36.95585 -122.54319 37043 ft 482 kts 134°
2026-05-05 13:37 36.90463 -122.48922 37044 ft 482 kts 134°
2026-05-05 13:37 36.85341 -122.43537 37046 ft 483 kts 134°
2026-05-05 13:38 36.80206 -122.38150 37049 ft 483 kts 134°
2026-05-05 13:38 36.75063 -122.32764 37047 ft 484 kts 134°
2026-05-05 13:39 36.69911 -122.27379 37052 ft 485 kts 134°
2026-05-05 13:39 36.64744 -122.21988 37055 ft 486 kts 135°
2026-05-05 13:40 36.59564 -122.16593 37056 ft 487 kts 135°
2026-05-05 13:40 36.54370 -122.11195 37056 ft 488 kts 135°
2026-05-05 13:41 36.49162 -122.05791 37056 ft 489 kts 135°
2026-05-05 13:41 36.43935 -122.00377 37055 ft 491 kts 135°
2026-05-05 13:42 36.38694 -121.94959 37056 ft 492 kts 135°
2026-05-05 13:42 36.33433 -121.89529 37054 ft 494 kts 135°
2026-05-05 13:43 36.28154 -121.84091 37037 ft 495 kts 136°
2026-05-05 13:43 36.22860 -121.78649 37032 ft 496 kts 136°
2026-05-05 13:44 36.17562 -121.73210 37030 ft 496 kts 136°
2026-05-05 13:44 36.12248 -121.67767 37045 ft 497 kts 136°
2026-05-05 13:45 36.06927 -121.62325 37046 ft 498 kts 136°
2026-05-05 13:45 36.01596 -121.56883 37047 ft 498 kts 137°
2026-05-05 13:46 35.96259 -121.51444 37045 ft 499 kts 137°
2026-05-05 13:46 35.90917 -121.46012 37047 ft 499 kts 137°
2026-05-05 13:47 35.85571 -121.40583 37043 ft 499 kts 137°
2026-05-05 13:47 35.80221 -121.35162 37041 ft 499 kts 137°
2026-05-05 13:48 35.74867 -121.29745 37047 ft 499 kts 137°
2026-05-05 13:48 35.69516 -121.24342 37043 ft 499 kts 138°
2026-05-05 13:49 35.64158 -121.18940 37045 ft 499 kts 138°
2026-05-05 13:49 35.58789 -121.13536 37045 ft 500 kts 138°
2026-05-05 13:50 35.53414 -121.08136 37044 ft 501 kts 138°
2026-05-05 13:50 35.48027 -121.02733 37045 ft 501 kts 139°
2026-05-05 13:51 35.42845 -120.97057 37047 ft 500 kts 132°
2026-05-05 13:51 35.38003 -120.90951 37050 ft 501 kts 131°
2026-05-05 13:52 35.33165 -120.84815 37048 ft 502 kts 132°
2026-05-05 13:52 35.28299 -120.78702 37051 ft 503 kts 132°
2026-05-05 13:53 35.23407 -120.72601 37046 ft 504 kts 133°
2026-05-05 13:53 35.18504 -120.66506 37050 ft 504 kts 133°
2026-05-05 13:54 35.13598 -120.60415 37044 ft 504 kts 133°
2026-05-05 13:54 35.08691 -120.54333 37048 ft 504 kts 133°
2026-05-05 13:55 35.03784 -120.48260 37053 ft 504 kts 134°
2026-05-05 13:55 34.98871 -120.42191 37056 ft 503 kts 134°
2026-05-05 13:56 34.93957 -120.36131 37057 ft 503 kts 134°
2026-05-05 13:56 34.89043 -120.30083 37065 ft 503 kts 134°
2026-05-05 13:57 34.84125 -120.24041 37061 ft 503 kts 134°
2026-05-05 13:57 34.79203 -120.18005 37044 ft 504 kts 134°
2026-05-05 13:58 34.74272 -120.11970 37044 ft 504 kts 135°
2026-05-05 13:58 34.69344 -120.05947 37048 ft 504 kts 135°
2026-05-05 13:59 34.61936 -119.96916 37046 ft 504 kts 135°
2026-05-05 14:00 34.55343 -119.88897 37011 ft 504 kts 135°
2026-05-05 14:00 34.49571 -119.81893 37005 ft 505 kts 136°
2026-05-05 14:01 34.44612 -119.75888 37009 ft 505 kts 136°
2026-05-05 14:01 34.39655 -119.69895 37006 ft 505 kts 136°
2026-05-05 14:02 34.34692 -119.63907 37009 ft 505 kts 136°
2026-05-05 14:02 34.29725 -119.57922 37005 ft 505 kts 136°
2026-05-05 14:03 34.24754 -119.51945 37006 ft 505 kts 136°
2026-05-05 14:03 34.19775 -119.45968 37007 ft 506 kts 137°
2026-05-05 14:04 34.14787 -119.39991 37008 ft 506 kts 137°
2026-05-05 14:04 34.09800 -119.34026 37009 ft 506 kts 137°
2026-05-05 14:05 34.04795 -119.28050 37008 ft 507 kts 137°
2026-05-05 14:05 33.99791 -119.22084 37011 ft 507 kts 138°
2026-05-05 14:06 33.94782 -119.16123 37005 ft 507 kts 138°
2026-05-05 14:06 33.89752 -119.10151 36483 ft 516 kts 138°
2026-05-05 14:07 33.87191 -119.07116 35753 ft 518 kts 138°
2026-05-05 14:07 33.84629 -119.04079 34915 ft 519 kts 138°
2026-05-05 14:07 33.82059 -119.01035 34028 ft 520 kts 137°
2026-05-05 14:07 33.79483 -118.97987 32958 ft 519 kts 137°
2026-05-05 14:08 33.76971 -118.95013 31947 ft 497 kts 137°
2026-05-05 14:08 33.74562 -118.92162 31026 ft 482 kts 137°
2026-05-05 14:08 33.72165 -118.89333 30267 ft 484 kts 137°
2026-05-05 14:08 33.69765 -118.86506 29519 ft 485 kts 137°
2026-05-05 14:09 33.67353 -118.83667 28795 ft 486 kts 137°
2026-05-05 14:09 33.64957 -118.80848 28149 ft 481 kts 137°
2026-05-05 14:09 33.62587 -118.78059 27502 ft 475 kts 137°
2026-05-05 14:09 33.60246 -118.75307 26876 ft 470 kts 137°
2026-05-05 14:10 33.57928 -118.72585 26246 ft 465 kts 137°
2026-05-05 14:10 33.55632 -118.69891 25626 ft 460 kts 137°
2026-05-05 14:10 33.53361 -118.67228 25025 ft 456 kts 137°
2026-05-05 14:10 33.51107 -118.64587 24432 ft 452 kts 137°
2026-05-05 14:11 33.48871 -118.61970 23843 ft 448 kts 137°
2026-05-05 14:11 33.46653 -118.59376 23168 ft 445 kts 137°
2026-05-05 14:11 33.44451 -118.56801 22518 ft 441 kts 137°
2026-05-05 14:11 33.42270 -118.54252 21918 ft 437 kts 137°
2026-05-05 14:12 33.40114 -118.51734 21340 ft 432 kts 137°
2026-05-05 14:12 33.37979 -118.49243 20754 ft 428 kts 137°
2026-05-05 14:12 33.35921 -118.46726 20170 ft 419 kts 130°
2026-05-05 14:12 33.34490 -118.43714 19628 ft 419 kts 111°
2026-05-05 14:13 33.33870 -118.40332 19077 ft 415 kts 95°
2026-05-05 14:13 33.33711 -118.36906 18539 ft 412 kts 93°
2026-05-05 14:13 33.33569 -118.33503 17925 ft 411 kts 93°
2026-05-05 14:13 33.33414 -118.30101 17322 ft 409 kts 94°
2026-05-05 14:14 33.33242 -118.26725 16737 ft 406 kts 94°
2026-05-05 14:14 33.33060 -118.23373 16184 ft 404 kts 94°
2026-05-05 14:14 33.32872 -118.20041 15633 ft 401 kts 94°
2026-05-05 14:14 33.32683 -118.16727 15076 ft 399 kts 94°
2026-05-05 14:15 33.32513 -118.13442 14538 ft 391 kts 90°
2026-05-05 14:15 33.32929 -118.10273 14000 ft 387 kts 69°
2026-05-05 14:15 33.34166 -118.07457 13517 ft 383 kts 52°
2026-05-05 14:15 33.35956 -118.05103 13051 ft 383 kts 43°
2026-05-05 14:16 33.37838 -118.02860 12617 ft 375 kts 43°
2026-05-05 14:16 33.39759 -118.00964 12105 ft 345 kts 26°
2026-05-05 14:16 33.41900 -118.00019 11729 ft 315 kts
2026-05-05 14:16 33.43987 -117.99759 11375 ft 290 kts 356°
2026-05-05 14:17 33.45928 -117.99839 11064 ft 271 kts 354°
2026-05-05 14:17 33.47777 -117.99953 10779 ft 268 kts 354°
2026-05-05 14:17 33.49671 -118.00074 10518 ft 280 kts 354°
2026-05-05 14:17 33.51654 -118.00188 10198 ft 288 kts 354°
2026-05-05 14:18 33.53655 -118.00291 9974 ft 286 kts 355°
2026-05-05 14:18 33.55597 -118.00384 9991 ft 277 kts 355°
2026-05-05 14:18 33.57491 -118.00236 9988 ft 275 kts 13°
2026-05-05 14:18 33.59324 -117.99564 10017 ft 279 kts 13°
2026-05-05 14:19 33.61215 -117.98969 10017 ft 283 kts 12°
2026-05-05 14:19 33.63122 -117.98391 10008 ft 283 kts 11°
2026-05-05 14:19 33.65016 -117.97824 9995 ft 279 kts 11°
2026-05-05 14:19 33.66890 -117.97265 9977 ft 276 kts 11°
2026-05-05 14:20 33.68761 -117.96710 9778 ft 280 kts 11°
2026-05-05 14:20 33.70661 -117.96150 9451 ft 282 kts 11°
2026-05-05 14:20 33.72561 -117.95592 9149 ft 281 kts 11°
2026-05-05 14:20 33.74451 -117.95040 8834 ft 279 kts 11°
2026-05-05 14:21 33.76330 -117.94498 8491 ft 278 kts 11°
2026-05-05 14:21 33.78196 -117.93983 8188 ft 273 kts
2026-05-05 14:21 33.80057 -117.94059 7874 ft 266 kts 346°
2026-05-05 14:21 33.81836 -117.94608 7582 ft 264 kts 342°
2026-05-05 14:22 33.83589 -117.95235 7270 ft 263 kts 342°
2026-05-05 14:22 33.85328 -117.95868 7071 ft 258 kts 341°
2026-05-05 14:22 33.87019 -117.96490 7019 ft 254 kts 341°
2026-05-05 14:22 33.88729 -117.97122 7004 ft 260 kts 341°
2026-05-05 14:23 33.90467 -117.97768 7000 ft 264 kts 341°
2026-05-05 14:23 33.92219 -117.98422 6994 ft 264 kts 341°
2026-05-05 14:23 33.93836 -117.99342 6982 ft 255 kts 320°
2026-05-05 14:23 33.95027 -118.00914 6995 ft 257 kts 303°
2026-05-05 14:24 33.95834 -118.02829 6980 ft 259 kts 286°
2026-05-05 14:24 33.96221 -118.04948 6963 ft 262 kts 279°
2026-05-05 14:24 33.96517 -118.07142 6577 ft 270 kts 278°
2026-05-05 14:24 33.96806 -118.09395 6077 ft 276 kts 278°
2026-05-05 14:25 33.97094 -118.11661 5558 ft 269 kts 278°
2026-05-05 14:25 33.97363 -118.13820 5031 ft 252 kts 278°
2026-05-05 14:25 33.97573 -118.15825 4469 ft 232 kts 272°
2026-05-05 14:25 33.97510 -118.17692 3937 ft 217 kts 264°
2026-05-05 14:26 33.97333 -118.19462 3614 ft 213 kts 263°
2026-05-05 14:26 33.97143 -118.21260 3304 ft 219 kts 263°
2026-05-05 14:26 33.96957 -118.23066 2991 ft 215 kts 263°
2026-05-05 14:26 33.96778 -118.24815 2688 ft 206 kts 263°
2026-05-05 14:27 33.96609 -118.26472 2433 ft 193 kts 263°
2026-05-05 14:27 33.96448 -118.28056 2206 ft 187 kts 263°
2026-05-05 14:27 33.96294 -118.29562 1921 ft 175 kts 263°
2026-05-05 14:27 33.96151 -118.30964 1680 ft 162 kts 263°
2026-05-05 14:28 33.96021 -118.32248 1481 ft 149 kts 263°
2026-05-05 14:28 33.95899 -118.33439 1297 ft 141 kts 263°
2026-05-05 14:28 33.95778 -118.34632 1101 ft 146 kts 263°
2026-05-05 14:28 33.95654 -118.35841 910 ft 146 kts 264°
2026-05-05 14:29 33.95543 -118.37047 719 ft 144 kts 264°
2026-05-05 14:29 33.95430 -118.38230 473 ft 140 kts 262°
2026-05-05 14:29 33.95302 -118.39369 294 ft 136 kts 263°
2026-05-05 14:29 33.95187 -118.40508 149 ft 138 kts 257°
2026-05-05 14:30 33.95076 -118.41527 127 ft 100 kts 263°
2026-05-05 14:30 33.95014 -118.42130 127 ft 46 kts 263°
2026-05-05 14:30 33.94974 -118.42426 126 ft 43 kts 254°
2026-05-05 14:30 33.94889 -118.42624 125 ft 16 kts 232°
2026-05-05 14:31 33.94869 -118.42652 126 ft 1 kts 229°
2026-05-05 14:31 33.94864 -118.42659 126 ft 2 kts 229°
2026-05-05 14:31 33.94817 -118.42705 125 ft 16 kts 212°
2026-05-05 14:31 33.94714 -118.42762 127 ft 17 kts 188°
2026-05-05 14:32 33.94642 -118.42677 127 ft 17 kts 93°
2026-05-05 14:32 33.94645 -118.42613 130 ft 5 kts 86°
2026-05-05 14:32 33.94646 -118.42595 127 ft 1 kts 85°
2026-05-05 14:32 33.94647 -118.42585 129 ft 2 kts 85°
2026-05-05 14:33 33.94648 -118.42571 129 ft 0 kts 85°
2026-05-05 14:33 33.94649 -118.42555 130 ft 10 kts 85°
2026-05-05 14:33 33.94659 -118.42443 126 ft 14 kts 83°
2026-05-05 14:34 33.94672 -118.42327 130 ft 14 kts 83°
2026-05-05 14:34 33.94685 -118.42211 127 ft 14 kts 82°
2026-05-05 14:34 33.94698 -118.42096 129 ft 14 kts 82°
2026-05-05 14:34 33.94710 -118.41988 130 ft 0 kts 82°
2026-05-05 14:37 33.94695 -118.41934 125 ft 10 kts 131°
2026-05-05 14:37 33.94660 -118.41859 125 ft 11 kts 101°
2026-05-05 14:37 33.94648 -118.41769 129 ft 11 kts 102°
2026-05-05 14:37 33.94599 -118.41716 126 ft 5 kts 161°
2026-05-05 14:38 33.94588 -118.41712 126 ft 1 kts 165°